This demonstration page uses our WeatherBlox Daily Observations layout. Learn more.

38.89511, -77.03637

Hourly Observations for January 10, 2015

Temp ( °F °C ) Dew Point ( °F °C ) Humidity (%) Winds ( mph kmh ) Pressure ( in mb ) Visibility ( mi km ) Precip ( " mm )
12:52 am 00:52 Clear 27 -3 7 -14 43 43 NNW 13 20 30.36 1028 10 16.09344 0 0
1:52 am 01:52 Clear 25 -4 0 -18 33 33 NNW 13 20 30.39 1029 10 16.09344 0 0
2:52 am 02:52 Clear 25 -4 0 -18 33 33 NNW 15 24 30.42 1030 10 16.09344 0 0
3:52 am 03:52 Clear 23 -5 0 -18 36 36 NW 15 24 30.42 1030 10 16.09344 0 0
4:52 am 04:52 Clear 21 -6 1 -17 42 42 NNW 12 19 30.48 1032 10 16.09344 0 0
5:52 am 05:52 Clear 21 -6 0 -18 38 38 NW 13 20 30.5 1033 10 16.09344 0 0
6:52 am 06:52 Clear 19 -7 0 -18 42 42 NNW 12 19 30.53 1034 10 16.09344 0 0
7:52 am 07:52 Sunny 19 -7 -2 -19 38 38 NW 10 17 30.56 1035 10 16.09344 0 0
8:52 am 08:52 Sunny 19 -7 -2 -19 38 38 NNW 14 22 30.62 1037 10 16.09344 0 0
9:52 am 09:52 Sunny 21 -6 -4 -20 32 32 NW 13 20 30.62 1037 10 16.09344 0 0
10:52 am 10:52 Sunny 23 -5 -4 -20 30 30 N 6 9 30.62 1037 10 16.09344 0 0
11:52 am 11:52 Sunny 27 -3 -4 -20 26 26 WNW 7 11 30.62 1037 10 16.09344 0 0
12:52 pm 12:52 Sunny 27 -3 -6 -21 24 24 WNW 7 11 30.59 1036 10 16.09344 0 0
1:52 pm 13:52 Sunny 28 -2 -6 -21 22 22 NNW 10 17 30.56 1035 10 16.09344 0 0
2:52 pm 14:52 Sunny 30 -1 -6 -21 20 20 NW 10 17 30.56 1035 10 16.09344 0 0
3:52 pm 15:52 Sunny 30 -1 -2 -19 24 24 NW 6 9 30.56 1035 10 16.09344 0 0
4:52 pm 16:52 Sunny 28 -2 -4 -20 24 24 Calm 30.56 1035 10 16.09344 0 0
5:52 pm 17:52 Clear 27 -3 0 -18 31 31 SSE 3 6 30.59 1036 10 16.09344 0 0
6:52 pm 18:52 Clear 27 -3 1 -17 33 33 ESE 3 6 30.59 1036 10 16.09344 0 0
7:52 pm 19:52 Clear 25 -4 3 -16 39 39 Calm 30.59 1036 10 16.09344 0 0
8:52 pm 20:52 Clear 25 -4 0 -18 33 33 ESE 3 6 30.62 1037 10 16.09344 0 0
9:52 pm 21:52 Clear 25 -4 0 -18 33 33 SSE 3 6 30.62 1037 10 16.09344 0 0
10:52 pm 22:52 Clear 25 -4 3 -16 39 39 Calm 30.62 1037 10 16.09344 0 0
11:52 pm 23:52 Partly Cloudy 25 -4 3 -16 39 39 Calm 30.62 1037 10 16.09344 0 0

Powered by AerisWeather